Station KGVW - Galveston 209A (Arena Offshore) Image indicating link to RSS feed of recent meteorological observations for station KGVW


Conditions at KGVW as of
(1:55 am CDT)
0655 GMT on 04/15/2024:
     

Click on the graph icon in the table below to see a time series plot of the last five days of that observation.

5-day plot - Wind Direction Wind Direction (WDIR): SE ( 140 deg true )
5-day plot - Wind Speed Wind Speed (WSPD): 13.0 kts
5-day plot - Air Temperature Air Temperature (ATMP): 71.6 °F
5-day plot - Dew Point Dew Point (DEWP): 68.0 °F
5-day plot - Visibility Visibility (VIS): 7.8 nmi
Previous observations
TIME
(CDT)
5-day plot - Wind Direction
WDIR
 
5-day plot - Wind Speed
WSPD
kts
5-day plot - Wind Gust
GST
kts
5-day plot - Wave Height
WVHT
ft
5-day plot - Dominant Wave Period
DPD
sec
5-day plot - Average Wave Period
APD
sec
5-day plot - Mean Wave Direction
MWD
 
5-day plot - Atmospheric Pressure
PRES
in
5-day plot - Pressure Tendency
PTDY
in
5-day plot - Air Temperature
ATMP
°F
5-day plot - Water Temperature
WTMP
°F
5-day plot - Dew Point
DEWP
°F
5-day plot - Salinity
SAL
psu
5-day plot - Visibility
VIS
nmi
5-day plot - Tide (above MLLW)
TIDE
ft
2024-04-15 01:35 am SE 12.0------- 71.6- 68.0- 7.0-
2024-04-15 01:15 am SE 15.0------- 71.6- 68.0- 8.7-
2024-04-15 12:55 am SE 14.0------- 71.6- 68.0- 7.8-
2024-04-15 12:35 am SE 14.0------- 71.6- 68.0- 7.8-
2024-04-15 12:15 am SE 13.0------- 71.6- 68.0- 7.8-
2024-04-14 11:55 pm SE 15.0------- 71.6- 68.0- 8.7-
2024-04-14 11:30 pm SE 14.0------- 71.6- 68.0- 7.8-
2024-04-14 11:15 pm SE 14.0------- 71.6- 68.0- 8.7-
2024-04-14 10:55 pm SE 15.0------- 71.6- 68.0- 8.7-
2024-04-14 10:35 pm SE 14.0------- 71.6- 68.0- 7.8-
2024-04-14 10:15 pm SE 14.0------- 71.6- 68.0- 7.8-
2024-04-14 09:55 pm SE 14.0------- 71.6- 68.0- 8.7-
2024-04-14 09:35 pm SE 15.0------- 71.6- 68.0- 7.8-
2024-04-14 09:15 pm SE 15.0------- 71.6- 68.0- 8.7-
2024-04-14 08:55 pm SE 13.0------- 71.6- 68.0- 7.8-
2024-04-14 08:35 pm SE 13.0------- 71.6- 68.0- 8.7-
2024-04-14 08:15 pm SE 13.0------- 71.6- 69.8- 8.7-
2024-04-14 07:55 pm SE 14.0------- 71.6- 68.0- 6.1-
2024-04-14 07:35 pm SE 12.0------- 71.6- 69.8- 7.0-
2024-04-14 07:10 pm SE 11.1------- 71.6- 69.8- 6.1-
2024-04-14 06:55 pm SE 11.1------- 71.6- 69.8- 6.1-
2024-04-14 06:35 pm SE 12.0------- 71.6- 68.0- 7.0-
2024-04-14 06:15 pm SE 11.1------- 73.4- 68.0- 7.0-
2024-04-14 05:55 pm SE 9.9------- 73.4- 68.0- 7.8-
2024-04-14 05:35 pm SE 9.9------- 73.4- 68.0- 7.8-
2024-04-14 05:15 pm SE 9.9------- 73.4- 68.0- 7.8-
2024-04-14 04:55 pm SE 9.9------- 73.4- 68.0- 7.8-
2024-04-14 04:35 pm SE 8.9------- 73.4- 68.0- 7.8-
2024-04-14 04:15 pm SE 8.9------- 73.4- 68.0- 8.7-
2024-04-14 03:55 pm SE 9.9------- 73.4- 68.0- 8.7-
2024-04-14 03:35 pm SE 9.9------- 73.4- 66.2- 7.8-
2024-04-14 03:15 pm SE 9.9------- 73.4- 66.2- 8.7-
2024-04-14 02:55 pm SE 9.9------- 73.4- 66.2- 8.7-
2024-04-14 02:35 pm SE 9.9------- 73.4- 66.2- 8.7-
2024-04-14 02:15 pm SE 7.0------- 73.4- 68.0- 8.7-
2024-04-14 01:55 pm SE 8.0------- 71.6- 68.0- 8.7-
2024-04-14 01:35 pm SE 7.0------- 71.6- 68.0- 8.7-
2024-04-14 01:15 pm SE 6.0------- 71.6- 68.0- 8.7-
2024-04-14 12:55 pmSSE 6.0------- 71.6- 68.0- 8.7-
2024-04-14 12:35 pmSSE 7.0------- 71.6- 68.0- 8.7-
2024-04-14 12:15 pmSSE 6.0------- 71.6- 68.0- 8.7-
2024-04-14 11:50 amSSE 7.0------- 71.6- 68.0- 8.7-
2024-04-14 11:35 amSSE 6.0------- 71.6- 68.0- 8.7-
2024-04-14 11:15 amSSE 7.0------- 71.6- 68.0- 8.7-
2024-04-14 10:55 am SE 8.0------- 71.6- 68.0- 7.8-
2024-04-14 10:35 amSSE 8.0------- 71.6- 68.0- 7.8-
2024-04-14 10:15 amSSE 6.0------- 71.6- 68.0- 8.7-
2024-04-14 09:55 am SE 8.0------- 71.6- 68.0- 7.8-
2024-04-14 09:35 amSSE 8.9------- 71.6- 68.0- 8.7-
2024-04-14 09:15 am SE 7.0------- 71.6- 68.0- 7.8-
2024-04-14 08:55 am SE 8.0------- 71.6- 66.2- 7.8-
2024-04-14 08:35 amSSE 7.0------- 71.6- 66.2- 7.8-
2024-04-14 08:15 amSSE 8.0------- 71.6- 66.2- 7.8-
2024-04-14 07:55 amSSE 8.9------- 71.6- 66.2- 7.8-
2024-04-14 07:30 am SE 8.9------- 71.6- 66.2- 7.8-
2024-04-14 07:15 amSSE 8.9------- 71.6- 66.2- 7.8-
2024-04-14 06:55 amSSE 9.9------- 71.6- 66.2- 7.8-
2024-04-14 06:35 amSSE 9.9------- 71.6- 66.2- 8.7-
2024-04-14 06:15 am SE 8.9------- 71.6- 66.2- 8.7-
2024-04-14 05:50 am SE 8.9------- 71.6- 66.2- 8.7-
2024-04-14 05:35 am SE 9.9------- 71.6- 66.2- 8.7-
2024-04-14 05:15 am SE 8.9------- 71.6- 66.2- 8.7-
2024-04-14 04:55 am SE 8.9------- 71.6- 66.2- 8.7-
2024-04-14 04:35 am SE 8.9------- 71.6- 66.2- 8.7-
2024-04-14 04:15 am SE 8.0------- 71.6- 66.2- 8.7-
2024-04-14 03:55 am SE 8.0------- 71.6- 66.2- 8.7-
2024-04-14 03:35 amSSE 7.0------- 71.6- 66.2- 8.7-
2024-04-14 03:15 amSSE 8.0------- 71.6- 66.2- 8.7-
2024-04-14 02:55 amSSE 7.0------- 71.6- 66.2- 8.7-
2024-04-14 02:35 amSSE 8.0------- 71.6- 66.2- 8.7-
2024-04-14 02:15 amSSE 8.9------- 71.6- 66.2- 8.7-
2024-04-14 01:55 amSSE 8.0------- 71.6- 66.2- 8.7-